{"data":{"norad_id":55919,"epoch":"2026-09-20T00:18:32.665248Z","epoch_age_seconds":145186,"freshness":"FRESH","line1":"1 55919U 23037F   26263.01287807 -.00000002  00000+0  75905-5 0  9999","line2":"2 55919  70.0003 174.5499 0002863 269.6605  90.4226 14.98328609192592","mean_motion":14.98328609,"eccentricity":0.0002863,"inclination_deg":70.0003,"raan_deg":174.5499,"arg_perigee_deg":269.6605,"mean_anomaly_deg":90.4226,"bstar":7.5905e-6,"rev_number":19259,"period_min":96.107088348334,"perigee_km":570.07035104429,"apogee_km":574.05003395671,"semimajor_km":6950.1971925005,"source":"CELESTRAK","updated_at":"2026-09-21T09:00:33.323000Z"}}